sat.trackr.live / text

‹ back to catalog

TOMORROW-S1

NORAD 60479 · 2024-149M

PAYLOAD ACTIVE UNKNOWN

§ Identity

Operator
Country
US
Launch date
2024-08-16
Launch site
AFWTR
Launch vehicle
Mass (kg)
RCS (m²)

External: N2YO · Heavens-Above · Gunter

§ Orbital elements

Epoch: 2026-09-22T16:46:40.021248Z

Period
93.88 min
Inclination
97.3693°
Eccentricity
0.0001106
Mean motion
15.33917564 rev/d
Perigee alt
463.4 km
Apogee alt
464.9 km
Semi-major
6,842.3 km
B*
1.6599e-4
RAAN
345.9122°
Arg perigee
230.3389°
Mean anomaly
129.7757°
Rev number
11,703

§ Raw data

TOMORROW-S11 60479U 24149M   26265.69907432  .00005366  00000+0  16599-3 0  99992 60479  97.3693 345.9122 0001106 230.3389 129.7757 15.33917564117031

JSON: /api/v1/satellites/60479 · /tle

For live sub-satellite position, see the globe view (requires WebGL).

§ Visibility from observer

Set your observer location to see the next 7 days of passes ≥ 10°. The values pass through the URL so the page stays shareable.

No JS? Fill the form by hand. The geolocation button needs JavaScript.

§ Radio — SatNOGS DB

ModeDescriptionDownlinkUplink
OQPSK Mode X - OQPSK 8.030 GHz

1 transmitter · refreshed weekly from db.satnogs.org